Location: Bushey
(51.6333°N, 0.3667°W)
Time: 17:53:34
(UTC+00:00)

Cosmos 2219 Rocket - Pass Details

Date: 03 March 2021
Orbit: 826 x 848 km, 71.0° (Epoch: 17 April)

Event Time Altitude Azimuth Distance (km) Brightness Sun altitude
Rises 21:07:47 0° 225° (SW) 3,359 5.5 -30.9°
Reaches altitude 10° 21:10:15 10° 230° (SW) 2,432 4.7 -31.3°
Maximum altitude 21:15:42 54° 307° (NW) 1,012 2.8 -31.9°
Drops below altitude 10° 21:21:14 10° 25° (NNE) 2,458 4.7 -32.6°
Sets 21:23:45 0° 30° (NNE) 3,399 5.4 -33.0°
